COSMOS 1392

Satellite information

Favourite Embed

Satellite Type and Status

PAYLOADIN ORBIT

Key statistics

Satellite COSMOS 1392 at a glance.

Uptime

15813

Days in orbit

Revolutions

≈ 12.5

Per day

Orbit

LEO

Low Earth Orbit

Inclination

74.0

Latest

Satellite identification and parameters

Extended collection of information and parameters for COSMOS 1392.

Object identification

Identified? True

Debris? False

Object name: COSMOS 1392

International designator: 1982-073E

Object number (NORAD): 13379

Object ID (CCSDS): 13379

Country: COMMONWEALTH OF INDEPENDENT STATES (CIS)

Current information (Y/N): Y

RCS size: MEDIUM

Orbital parameters

Period: 115.257 minutes

Inclination: 74.0132 deg

SMA: 7845.205 km

Apoapsis: 1474.27 km

Periapsis: 1459.869 km

RAAN: 281.9768 deg

Eccentricy: 0.00091782

Argument of periapsis: 166.2132 deg

Mean anomaly: 308.3847 deg

Mean motion: 12.49385152 rev/day

Mean motion (dot): -0.00000017 rev/day2

B* drag term: -0.000004973586 1/REarth

Two-line elements (TLE)

Creation date: Nov. 4, 2025, 5:59 p.m.

Reference frame: TEME

Reference center: EARTH

Epoch: Nov. 4, 2025, 9:23 a.m. UTC

TLE line 0: 0 COSMOS 1392

TLE line 1: 1 13379U 82073E 25308.39164023 -.00000017 00000-0 -49736-5 0 9993

TLE line 2: 2 13379 74.0132 281.9768 0009178 166.2132 308.3847 12.49385152660543

Live tracking on map

Real-time ground track for satellite COSMOS 1392.

In-orbit conjunctions

There are no conjunctions computed for COSMOS 1392, at the moment. Check back to stay up to date, as we update our databases every day.

Go to all conjunctions

Associated space launch

Military communications satellites

COSMOS 1392 was lifted into orbit during the mission ‘Kosmos-3M | Strela-1M 241-248’, on board a Kosmos-3M space rocket.

The launch took place on July 21, 1982, 6:31 a.m. from 132/2.

For more information about the launch, click the button.

Launch to space Kosmos-3M | Strela-1M 241-248
Kosmos-3M | Strela-1M 241-248

Agency: N/A

Status: Launch Successful

Launch date: July 21, 1982, 6:31 a.m. UTC

Rocket: Kosmos-3M

Launch pad: 132/2

Location: Plesetsk Cosmodrome, Russian Federation

...

Latest news about this satellite

There are no fresh news available about this satellite. Check back as we update our databases every day.


Newsletter sign-up

Weekly statistics, charts and insights to help you stay on top of the space industry.